owner,sensor,date,latitude,longitude,relative_humidity,qcFlag 
SCCF RECON,ioos:station:SCCF:53:1,2014-02-01T00:00:00Z,26.6493,-81.8810,96.8,1111122 
SCCF RECON,ioos:station:SCCF:53:1,2014-02-01T00:15:00Z,26.6493,-81.8810,97.8,1111122 
SCCF RECON,ioos:station:SCCF:53:1,2014-02-01T00:30:00Z,26.6493,-81.8810,98.0,1111122 
SCCF RECON,ioos:station:SCCF:53:1,2014-02-01T00:45:00Z,26.6493,-81.8810,97.4,1111122 
SCCF RECON,ioos:station:SCCF:53:1,2014-02-01T01:00:00Z,26.6493,-81.8810,98.0,1111122 
SCCF RECON,ioos:station:SCCF:53:1,2014-02-01T01:15:00Z,26.6493,-81.8810,97.0,1111122 
SCCF RECON,ioos:station:SCCF:53:1,2014-02-01T01:30:00Z,26.6493,-81.8810,97.6,1111122 
SCCF RECON,ioos:station:SCCF:53:1,2014-02-01T01:45:00Z,26.6493,-81.8810,98.0,1111122 
SCCF RECON,ioos:station:SCCF:53:1,2014-02-01T02:00:00Z,26.6493,-81.8810,98.0,1111122 
SCCF RECON,ioos:station:SCCF:53:1,2014-02-01T02:15:00Z,26.6493,-81.8810,98.2,1111122 
SCCF RECON,ioos:station:SCCF:53:1,2014-02-01T02:30:00Z,26.6493,-81.8810,98.5,1111122 
SCCF RECON,ioos:station:SCCF:53:1,2014-02-01T02:45:00Z,26.6493,-81.8810,98.5,1111122 
SCCF RECON,ioos:station:SCCF:53:1,2014-02-01T03:00:00Z,26.6493,-81.8810,98.8,1111122 
SCCF RECON,ioos:station:SCCF:53:1,2014-02-01T03:15:00Z,26.6493,-81.8810,98.9,1111122 
SCCF RECON,ioos:station:SCCF:53:1,2014-02-01T03:30:00Z,26.6493,-81.8810,98.8,1111122 
SCCF RECON,ioos:station:SCCF:53:1,2014-02-01T03:45:00Z,26.6493,-81.8810,98.6,1111122 
SCCF RECON,ioos:station:SCCF:53:1,2014-02-01T04:00:00Z,26.6493,-81.8810,98.8,1111122 
SCCF RECON,ioos:station:SCCF:53:1,2014-02-01T04:15:00Z,26.6493,-81.8810,98.8,1111122 
SCCF RECON,ioos:station:SCCF:53:1,2014-02-01T04:30:00Z,26.6493,-81.8810,98.9,1111122 
SCCF RECON,ioos:station:SCCF:53:1,2014-02-01T04:45:00Z,26.6493,-81.8810,98.9,1111122 
SCCF RECON,ioos:station:SCCF:53:1,2014-02-01T05:00:00Z,26.6493,-81.8810,98.9,1111122 
SCCF RECON,ioos:station:SCCF:53:1,2014-02-01T05:15:00Z,26.6493,-81.8810,98.9,1111122 
SCCF RECON,ioos:station:SCCF:53:1,2014-02-01T05:30:00Z,26.6493,-81.8810,99.1,1111122 
SCCF RECON,ioos:station:SCCF:53:1,2014-02-01T05:45:00Z,26.6493,-81.8810,99.1,1111122 
SCCF RECON,ioos:station:SCCF:53:1,2014-02-01T06:00:00Z,26.6493,-81.8810,99.0,1111122 
SCCF RECON,ioos:station:SCCF:53:1,2014-02-01T06:15:00Z,26.6493,-81.8810,98.8,1111122 
SCCF RECON,ioos:station:SCCF:53:1,2014-02-01T06:30:00Z,26.6493,-81.8810,98.9,1111122 
SCCF RECON,ioos:station:SCCF:53:1,2014-02-01T06:45:00Z,26.6493,-81.8810,99.0,1111122 
SCCF RECON,ioos:station:SCCF:53:1,2014-02-01T07:00:00Z,26.6493,-81.8810,99.0,1111122 
SCCF RECON,ioos:station:SCCF:53:1,2014-02-01T07:15:00Z,26.6493,-81.8810,99.2,1111122 
SCCF RECON,ioos:station:SCCF:53:1,2014-02-01T07:30:00Z,26.6493,-81.8810,99.2,1111122 
SCCF RECON,ioos:station:SCCF:53:1,2014-02-01T07:45:00Z,26.6493,-81.8810,99.2,1111122 
SCCF RECON,ioos:station:SCCF:53:1,2014-02-01T08:00:00Z,26.6493,-81.8810,99.2,1111122 
SCCF RECON,ioos:station:SCCF:53:1,2014-02-01T08:15:00Z,26.6493,-81.8810,99.2,1111122 
SCCF RECON,ioos:station:SCCF:53:1,2014-02-01T08:30:00Z,26.6493,-81.8810,99.2,1111122 
SCCF RECON,ioos:station:SCCF:53:1,2014-02-01T08:45:00Z,26.6493,-81.8810,99.2,1111122 
SCCF RECON,ioos:station:SCCF:53:1,2014-02-01T09:00:00Z,26.6493,-81.8810,99.4,1111122 
SCCF RECON,ioos:station:SCCF:53:1,2014-02-01T09:15:00Z,26.6493,-81.8810,99.4,1111122 
SCCF RECON,ioos:station:SCCF:53:1,2014-02-01T09:30:00Z,26.6493,-81.8810,99.5,1111122 
SCCF RECON,ioos:station:SCCF:53:1,2014-02-01T09:45:00Z,26.6493,-81.8810,99.6,1111122 
SCCF RECON,ioos:station:SCCF:53:1,2014-02-01T10:00:00Z,26.6493,-81.8810,99.7,1111122 
SCCF RECON,ioos:station:SCCF:53:1,2014-02-01T10:15:00Z,26.6493,-81.8810,99.8,1111122 
SCCF RECON,ioos:station:SCCF:53:1,2014-02-01T10:30:00Z,26.6493,-81.8810,99.9,1111122 
SCCF RECON,ioos:station:SCCF:53:1,2014-02-01T10:45:00Z,26.6493,-81.8810,99.9,1111122 
SCCF RECON,ioos:station:SCCF:53:1,2014-02-01T11:00:00Z,26.6493,-81.8810,99.9,1111122 
SCCF RECON,ioos:station:SCCF:53:1,2014-02-01T11:15:00Z,26.6493,-81.8810,100.0,1111122 
SCCF RECON,ioos:station:SCCF:53:1,2014-02-01T11:30:00Z,26.6493,-81.8810,100.0,1111122 
SCCF RECON,ioos:station:SCCF:53:1,2014-02-01T11:45:00Z,26.6493,-81.8810,100.0,1111122 
SCCF RECON,ioos:station:SCCF:53:1,2014-02-01T12:00:00Z,26.6493,-81.8810,100.0,1111122 
SCCF RECON,ioos:station:SCCF:53:1,2014-02-01T12:15:00Z,26.6493,-81.8810,100.0,1111122 
SCCF RECON,ioos:station:SCCF:53:1,2014-02-01T12:30:00Z,26.6493,-81.8810,100.0,1111122 
SCCF RECON,ioos:station:SCCF:53:1,2014-02-01T12:45:00Z,26.6493,-81.8810,100.0,1111122 
SCCF RECON,ioos:station:SCCF:53:1,2014-02-01T13:00:00Z,26.6493,-81.8810,100.1,1111122 
SCCF RECON,ioos:station:SCCF:53:1,2014-02-01T13:15:00Z,26.6493,-81.8810,100.1,1111122 
SCCF RECON,ioos:station:SCCF:53:1,2014-02-01T13:30:00Z,26.6493,-81.8810,100.1,1111122 
SCCF RECON,ioos:station:SCCF:53:1,2014-02-01T13:45:00Z,26.6493,-81.8810,100.1,1111122 
SCCF RECON,ioos:station:SCCF:53:1,2014-02-01T14:00:00Z,26.6493,-81.8810,100.2,1111122 
SCCF RECON,ioos:station:SCCF:53:1,2014-02-01T14:15:00Z,26.6493,-81.8810,100.2,1111122 
SCCF RECON,ioos:station:SCCF:53:1,2014-02-01T14:30:00Z,26.6493,-81.8810,100.2,1111122 
SCCF RECON,ioos:station:SCCF:53:1,2014-02-01T14:45:00Z,26.6493,-81.8810,100.2,1111122 
SCCF RECON,ioos:station:SCCF:53:1,2014-02-01T15:00:00Z,26.6493,-81.8810,100.2,1111122 
SCCF RECON,ioos:station:SCCF:53:1,2014-02-01T15:15:00Z,26.6493,-81.8810,100.2,1111122 
SCCF RECON,ioos:station:SCCF:53:1,2014-02-01T15:30:00Z,26.6493,-81.8810,100.2,1111122 
SCCF RECON,ioos:station:SCCF:53:1,2014-02-01T15:45:00Z,26.6493,-81.8810,100.1,1111122 
SCCF RECON,ioos:station:SCCF:53:1,2014-02-01T16:00:00Z,26.6493,-81.8810,99.0,1111122 
SCCF RECON,ioos:station:SCCF:53:1,2014-02-01T16:15:00Z,26.6493,-81.8810,89.0,1111122 
SCCF RECON,ioos:station:SCCF:53:1,2014-02-01T16:30:00Z,26.6493,-81.8810,87.2,1111122 
SCCF RECON,ioos:station:SCCF:53:1,2014-02-01T16:45:00Z,26.6493,-81.8810,81.2,1111122 
SCCF RECON,ioos:station:SCCF:53:1,2014-02-01T17:00:00Z,26.6493,-81.8810,84.5,1111122 
SCCF RECON,ioos:station:SCCF:53:1,2014-02-01T17:15:00Z,26.6493,-81.8810,76.8,1111122 
SCCF RECON,ioos:station:SCCF:53:1,2014-02-01T17:30:00Z,26.6493,-81.8810,68.6,1111122 
SCCF RECON,ioos:station:SCCF:53:1,2014-02-01T17:45:00Z,26.6493,-81.8810,67.7,1111122 
SCCF RECON,ioos:station:SCCF:53:1,2014-02-01T18:00:00Z,26.6493,-81.8810,75.8,1111122 
SCCF RECON,ioos:station:SCCF:53:1,2014-02-01T18:15:00Z,26.6493,-81.8810,79.1,1111122 
SCCF RECON,ioos:station:SCCF:53:1,2014-02-01T18:30:00Z,26.6493,-81.8810,83.1,1111122 
SCCF RECON,ioos:station:SCCF:53:1,2014-02-01T18:45:00Z,26.6493,-81.8810,79.9,1111122 
SCCF RECON,ioos:station:SCCF:53:1,2014-02-01T19:00:00Z,26.6493,-81.8810,79.5,1111122 
SCCF RECON,ioos:station:SCCF:53:1,2014-02-01T19:15:00Z,26.6493,-81.8810,77.2,1111122 
SCCF RECON,ioos:station:SCCF:53:1,2014-02-01T19:30:00Z,26.6493,-81.8810,77.9,1111122 
SCCF RECON,ioos:station:SCCF:53:1,2014-02-01T19:45:00Z,26.6493,-81.8810,81.0,1111122 
SCCF RECON,ioos:station:SCCF:53:1,2014-02-01T20:00:00Z,26.6493,-81.8810,78.2,1111122 
SCCF RECON,ioos:station:SCCF:53:1,2014-02-01T20:15:00Z,26.6493,-81.8810,75.8,1111122 
SCCF RECON,ioos:station:SCCF:53:1,2014-02-01T20:30:00Z,26.6493,-81.8810,76.3,1111122 
SCCF RECON,ioos:station:SCCF:53:1,2014-02-01T20:45:00Z,26.6493,-81.8810,75.5,1111122 
SCCF RECON,ioos:station:SCCF:53:1,2014-02-01T21:00:00Z,26.6493,-81.8810,74.1,1111122 
SCCF RECON,ioos:station:SCCF:53:1,2014-02-01T21:15:00Z,26.6493,-81.8810,74.9,1111122 
SCCF RECON,ioos:station:SCCF:53:1,2014-02-01T21:30:00Z,26.6493,-81.8810,76.2,1111122 
SCCF RECON,ioos:station:SCCF:53:1,2014-02-01T21:45:00Z,26.6493,-81.8810,78.0,1111122 
SCCF RECON,ioos:station:SCCF:53:1,2014-02-01T22:00:00Z,26.6493,-81.8810,76.5,1111122 
SCCF RECON,ioos:station:SCCF:53:1,2014-02-01T22:15:00Z,26.6493,-81.8810,79.4,1111122 
SCCF RECON,ioos:station:SCCF:53:1,2014-02-01T22:30:00Z,26.6493,-81.8810,83.8,1111122 
SCCF RECON,ioos:station:SCCF:53:1,2014-02-01T22:45:00Z,26.6493,-81.8810,80.0,1111122 
SCCF RECON,ioos:station:SCCF:53:1,2014-02-01T23:00:00Z,26.6493,-81.8810,81.2,1111122 
SCCF RECON,ioos:station:SCCF:53:1,2014-02-01T23:15:00Z,26.6493,-81.8810,84.2,1111122 
SCCF RECON,ioos:station:SCCF:53:1,2014-02-01T23:30:00Z,26.6493,-81.8810,86.3,1111122 
SCCF RECON,ioos:station:SCCF:53:1,2014-02-01T23:45:00Z,26.6493,-81.8810,86.6,1111122 
SCCF RECON,ioos:station:SCCF:53:1,2014-02-02T00:00:00Z,26.6493,-81.8810,88.2,1111122 
SCCF RECON,ioos:station:SCCF:53:1,2014-02-02T00:15:00Z,26.6493,-81.8810,85.5,1111122 
SCCF RECON,ioos:station:SCCF:53:1,2014-02-02T00:30:00Z,26.6493,-81.8810,86.8,1111122 
SCCF RECON,ioos:station:SCCF:53:1,2014-02-02T00:45:00Z,26.6493,-81.8810,90.1,1111122 
SCCF RECON,ioos:station:SCCF:53:1,2014-02-02T01:00:00Z,26.6493,-81.8810,86.7,1111122 
SCCF RECON,ioos:station:SCCF:53:1,2014-02-02T01:15:00Z,26.6493,-81.8810,86.0,1111122 
SCCF RECON,ioos:station:SCCF:53:1,2014-02-02T01:30:00Z,26.6493,-81.8810,88.6,1111122 
SCCF RECON,ioos:station:SCCF:53:1,2014-02-02T01:45:00Z,26.6493,-81.8810,88.4,1111122 
SCCF RECON,ioos:station:SCCF:53:1,2014-02-02T02:00:00Z,26.6493,-81.8810,89.3,1111122 
SCCF RECON,ioos:station:SCCF:53:1,2014-02-02T02:15:00Z,26.6493,-81.8810,92.1,1111122 
SCCF RECON,ioos:station:SCCF:53:1,2014-02-02T02:30:00Z,26.6493,-81.8810,89.4,1111122 
SCCF RECON,ioos:station:SCCF:53:1,2014-02-02T02:45:00Z,26.6493,-81.8810,92.4,1111122 
SCCF RECON,ioos:station:SCCF:53:1,2014-02-02T03:00:00Z,26.6493,-81.8810,94.4,1111122 
SCCF RECON,ioos:station:SCCF:53:1,2014-02-02T03:15:00Z,26.6493,-81.8810,95.2,1111122 
SCCF RECON,ioos:station:SCCF:53:1,2014-02-02T03:30:00Z,26.6493,-81.8810,93.9,1111122 
SCCF RECON,ioos:station:SCCF:53:1,2014-02-02T03:45:00Z,26.6493,-81.8810,93.5,1111122 
SCCF RECON,ioos:station:SCCF:53:1,2014-02-02T04:00:00Z,26.6493,-81.8810,93.1,1111122 
SCCF RECON,ioos:station:SCCF:53:1,2014-02-02T04:15:00Z,26.6493,-81.8810,94.7,1111122 
SCCF RECON,ioos:station:SCCF:53:1,2014-02-02T04:30:00Z,26.6493,-81.8810,94.9,1111122 
SCCF RECON,ioos:station:SCCF:53:1,2014-02-02T04:45:00Z,26.6493,-81.8810,95.7,1111122 
SCCF RECON,ioos:station:SCCF:53:1,2014-02-02T05:00:00Z,26.6493,-81.8810,96.2,1111122 
SCCF RECON,ioos:station:SCCF:53:1,2014-02-02T05:15:00Z,26.6493,-81.8810,92.7,1111122 
SCCF RECON,ioos:station:SCCF:53:1,2014-02-02T05:30:00Z,26.6493,-81.8810,91.7,1111122 
SCCF RECON,ioos:station:SCCF:53:1,2014-02-02T05:45:00Z,26.6493,-81.8810,90.5,1111122 
SCCF RECON,ioos:station:SCCF:53:1,2014-02-02T06:00:00Z,26.6493,-81.8810,88.3,1111122 
SCCF RECON,ioos:station:SCCF:53:1,2014-02-02T06:15:00Z,26.6493,-81.8810,88.0,1111122 
SCCF RECON,ioos:station:SCCF:53:1,2014-02-02T06:30:00Z,26.6493,-81.8810,88.1,1111122 
SCCF RECON,ioos:station:SCCF:53:1,2014-02-02T06:45:00Z,26.6493,-81.8810,89.6,1111122 
SCCF RECON,ioos:station:SCCF:53:1,2014-02-02T07:00:00Z,26.6493,-81.8810,93.6,1111122 
SCCF RECON,ioos:station:SCCF:53:1,2014-02-02T07:15:00Z,26.6493,-81.8810,95.2,1111122 
SCCF RECON,ioos:station:SCCF:53:1,2014-02-02T07:30:00Z,26.6493,-81.8810,95.2,1111122 
SCCF RECON,ioos:station:SCCF:53:1,2014-02-02T07:45:00Z,26.6493,-81.8810,95.3,1111122 
SCCF RECON,ioos:station:SCCF:53:1,2014-02-02T08:00:00Z,26.6493,-81.8810,95.9,1111122 
SCCF RECON,ioos:station:SCCF:53:1,2014-02-02T08:15:00Z,26.6493,-81.8810,94.0,1111122 
SCCF RECON,ioos:station:SCCF:53:1,2014-02-02T08:30:00Z,26.6493,-81.8810,93.2,1111122 
SCCF RECON,ioos:station:SCCF:53:1,2014-02-02T08:45:00Z,26.6493,-81.8810,93.6,1111122 
SCCF RECON,ioos:station:SCCF:53:1,2014-02-02T09:00:00Z,26.6493,-81.8810,94.6,1111122 
SCCF RECON,ioos:station:SCCF:53:1,2014-02-02T09:15:00Z,26.6493,-81.8810,95.4,1111122 
SCCF RECON,ioos:station:SCCF:53:1,2014-02-02T09:30:00Z,26.6493,-81.8810,96.1,1111122 
SCCF RECON,ioos:station:SCCF:53:1,2014-02-02T09:45:00Z,26.6493,-81.8810,96.4,1111122 
SCCF RECON,ioos:station:SCCF:53:1,2014-02-02T10:00:00Z,26.6493,-81.8810,97.1,1111122 
SCCF RECON,ioos:station:SCCF:53:1,2014-02-02T10:15:00Z,26.6493,-81.8810,97.5,1111122 
SCCF RECON,ioos:station:SCCF:53:1,2014-02-02T10:30:00Z,26.6493,-81.8810,97.8,1111122 
SCCF RECON,ioos:station:SCCF:53:1,2014-02-02T10:45:00Z,26.6493,-81.8810,98.0,1111122 
SCCF RECON,ioos:station:SCCF:53:1,2014-02-02T11:00:00Z,26.6493,-81.8810,98.4,1111122 
SCCF RECON,ioos:station:SCCF:53:1,2014-02-02T11:15:00Z,26.6493,-81.8810,98.9,1111122 
SCCF RECON,ioos:station:SCCF:53:1,2014-02-02T11:30:00Z,26.6493,-81.8810,99.1,1111122 
SCCF RECON,ioos:station:SCCF:53:1,2014-02-02T11:45:00Z,26.6493,-81.8810,99.3,1111122 
SCCF RECON,ioos:station:SCCF:53:1,2014-02-02T12:00:00Z,26.6493,-81.8810,99.4,1111122 
SCCF RECON,ioos:station:SCCF:53:1,2014-02-02T12:15:00Z,26.6493,-81.8810,99.5,1111122 
SCCF RECON,ioos:station:SCCF:53:1,2014-02-02T12:30:00Z,26.6493,-81.8810,99.6,1111122 
SCCF RECON,ioos:station:SCCF:53:1,2014-02-02T12:45:00Z,26.6493,-81.8810,99.8,1111122 
SCCF RECON,ioos:station:SCCF:53:1,2014-02-02T13:00:00Z,26.6493,-81.8810,99.8,1111122 
SCCF RECON,ioos:station:SCCF:53:1,2014-02-02T13:15:00Z,26.6493,-81.8810,99.8,1111122 
SCCF RECON,ioos:station:SCCF:53:1,2014-02-02T13:30:00Z,26.6493,-81.8810,99.8,1111122 
SCCF RECON,ioos:station:SCCF:53:1,2014-02-02T13:45:00Z,26.6493,-81.8810,99.5,1111122 
SCCF RECON,ioos:station:SCCF:53:1,2014-02-02T14:00:00Z,26.6493,-81.8810,99.2,1111122 
SCCF RECON,ioos:station:SCCF:53:1,2014-02-02T14:15:00Z,26.6493,-81.8810,95.1,1111122 
SCCF RECON,ioos:station:SCCF:53:1,2014-02-02T14:30:00Z,26.6493,-81.8810,87.8,1111122 
SCCF RECON,ioos:station:SCCF:53:1,2014-02-02T14:45:00Z,26.6493,-81.8810,84.8,1111122 
SCCF RECON,ioos:station:SCCF:53:1,2014-02-02T15:00:00Z,26.6493,-81.8810,79.2,1111122 
SCCF RECON,ioos:station:SCCF:53:1,2014-02-02T15:15:00Z,26.6493,-81.8810,74.1,1111122 
SCCF RECON,ioos:station:SCCF:53:1,2014-02-02T15:30:00Z,26.6493,-81.8810,71.7,1111122 
SCCF RECON,ioos:station:SCCF:53:1,2014-02-02T15:45:00Z,26.6493,-81.8810,67.1,1111122 
SCCF RECON,ioos:station:SCCF:53:1,2014-02-02T16:00:00Z,26.6493,-81.8810,64.6,1111122 
SCCF RECON,ioos:station:SCCF:53:1,2014-02-02T16:15:00Z,26.6493,-81.8810,63.2,1111122 
SCCF RECON,ioos:station:SCCF:53:1,2014-02-02T16:30:00Z,26.6493,-81.8810,62.1,1111122 
SCCF RECON,ioos:station:SCCF:53:1,2014-02-02T16:45:00Z,26.6493,-81.8810,58.4,1111122 
SCCF RECON,ioos:station:SCCF:53:1,2014-02-02T17:00:00Z,26.6493,-81.8810,55.2,1111122 
SCCF RECON,ioos:station:SCCF:53:1,2014-02-02T17:15:00Z,26.6493,-81.8810,52.4,1111122 
SCCF RECON,ioos:station:SCCF:53:1,2014-02-02T17:30:00Z,26.6493,-81.8810,50.1,1111122 
SCCF RECON,ioos:station:SCCF:53:1,2014-02-02T17:45:00Z,26.6493,-81.8810,48.8,1111122 
SCCF RECON,ioos:station:SCCF:53:1,2014-02-02T18:00:00Z,26.6493,-81.8810,49.8,1111122 
SCCF RECON,ioos:station:SCCF:53:1,2014-02-02T18:15:00Z,26.6493,-81.8810,45.6,1111122 
SCCF RECON,ioos:station:SCCF:53:1,2014-02-02T18:30:00Z,26.6493,-81.8810,45.6,1111122 
SCCF RECON,ioos:station:SCCF:53:1,2014-02-02T18:45:00Z,26.6493,-81.8810,42.6,1111122 
SCCF RECON,ioos:station:SCCF:53:1,2014-02-02T19:00:00Z,26.6493,-81.8810,40.1,1111122 
SCCF RECON,ioos:station:SCCF:53:1,2014-02-02T19:15:00Z,26.6493,-81.8810,41.5,1111122 
SCCF RECON,ioos:station:SCCF:53:1,2014-02-02T19:30:00Z,26.6493,-81.8810,63.6,1111122 
SCCF RECON,ioos:station:SCCF:53:1,2014-02-02T19:45:00Z,26.6493,-81.8810,70.6,1111122 
SCCF RECON,ioos:station:SCCF:53:1,2014-02-02T20:00:00Z,26.6493,-81.8810,71.2,1111122 
SCCF RECON,ioos:station:SCCF:53:1,2014-02-02T20:15:00Z,26.6493,-81.8810,68.5,1111122 
SCCF RECON,ioos:station:SCCF:53:1,2014-02-02T20:30:00Z,26.6493,-81.8810,65.1,1111122 
SCCF RECON,ioos:station:SCCF:53:1,2014-02-02T20:45:00Z,26.6493,-81.8810,69.6,1111122 
SCCF RECON,ioos:station:SCCF:53:1,2014-02-02T21:00:00Z,26.6493,-81.8810,73.8,1111122 
SCCF RECON,ioos:station:SCCF:53:1,2014-02-02T21:15:00Z,26.6493,-81.8810,72.9,1111122 
SCCF RECON,ioos:station:SCCF:53:1,2014-02-02T21:30:00Z,26.6493,-81.8810,70.6,1111122 
SCCF RECON,ioos:station:SCCF:53:1,2014-02-02T21:45:00Z,26.6493,-81.8810,76.7,1111122 
SCCF RECON,ioos:station:SCCF:53:1,2014-02-02T22:00:00Z,26.6493,-81.8810,73.4,1111122 
SCCF RECON,ioos:station:SCCF:53:1,2014-02-02T22:15:00Z,26.6493,-81.8810,71.5,1111122 
SCCF RECON,ioos:station:SCCF:53:1,2014-02-02T22:30:00Z,26.6493,-81.8810,70.7,1111122 
SCCF RECON,ioos:station:SCCF:53:1,2014-02-02T22:45:00Z,26.6493,-81.8810,68.0,1111122 
SCCF RECON,ioos:station:SCCF:53:1,2014-02-02T23:00:00Z,26.6493,-81.8810,77.4,1111122 
SCCF RECON,ioos:station:SCCF:53:1,2014-02-02T23:15:00Z,26.6493,-81.8810,74.3,1111122 
SCCF RECON,ioos:station:SCCF:53:1,2014-02-02T23:30:00Z,26.6493,-81.8810,73.8,1111122 
SCCF RECON,ioos:station:SCCF:53:1,2014-02-02T23:45:00Z,26.6493,-81.8810,67.5,1111122 
SCCF RECON,ioos:station:SCCF:53:1,2014-02-03T00:00:00Z,26.6493,-81.8810,70.3,1111122 
SCCF RECON,ioos:station:SCCF:53:1,2014-02-03T00:15:00Z,26.6493,-81.8810,73.2,1111122 
SCCF RECON,ioos:station:SCCF:53:1,2014-02-03T00:30:00Z,26.6493,-81.8810,71.3,1111122 
SCCF RECON,ioos:station:SCCF:53:1,2014-02-03T00:45:00Z,26.6493,-81.8810,69.7,1111122 
SCCF RECON,ioos:station:SCCF:53:1,2014-02-03T01:00:00Z,26.6493,-81.8810,68.6,1111122 
SCCF RECON,ioos:station:SCCF:53:1,2014-02-03T01:15:00Z,26.6493,-81.8810,68.3,1111122 
SCCF RECON,ioos:station:SCCF:53:1,2014-02-03T01:30:00Z,26.6493,-81.8810,69.1,1111122 
SCCF RECON,ioos:station:SCCF:53:1,2014-02-03T01:45:00Z,26.6493,-81.8810,73.8,1111122 
SCCF RECON,ioos:station:SCCF:53:1,2014-02-03T02:00:00Z,26.6493,-81.8810,76.7,1111122 
SCCF RECON,ioos:station:SCCF:53:1,2014-02-03T02:15:00Z,26.6493,-81.8810,79.4,1111122 
SCCF RECON,ioos:station:SCCF:53:1,2014-02-03T02:30:00Z,26.6493,-81.8810,76.7,1111122 
SCCF RECON,ioos:station:SCCF:53:1,2014-02-03T02:45:00Z,26.6493,-81.8810,79.3,1111122 
SCCF RECON,ioos:station:SCCF:53:1,2014-02-03T03:00:00Z,26.6493,-81.8810,80.2,1111122 
SCCF RECON,ioos:station:SCCF:53:1,2014-02-03T03:15:00Z,26.6493,-81.8810,77.7,1111122 
SCCF RECON,ioos:station:SCCF:53:1,2014-02-03T03:30:00Z,26.6493,-81.8810,79.8,1111122 
SCCF RECON,ioos:station:SCCF:53:1,2014-02-03T03:45:00Z,26.6493,-81.8810,80.9,1111122 
SCCF RECON,ioos:station:SCCF:53:1,2014-02-03T04:00:00Z,26.6493,-81.8810,81.9,1111122 
SCCF RECON,ioos:station:SCCF:53:1,2014-02-03T04:15:00Z,26.6493,-81.8810,82.7,1111122 
SCCF RECON,ioos:station:SCCF:53:1,2014-02-03T04:30:00Z,26.6493,-81.8810,84.9,1111122 
SCCF RECON,ioos:station:SCCF:53:1,2014-02-03T04:45:00Z,26.6493,-81.8810,86.1,1111122 
SCCF RECON,ioos:station:SCCF:53:1,2014-02-03T05:00:00Z,26.6493,-81.8810,87.2,1111122 
SCCF RECON,ioos:station:SCCF:53:1,2014-02-03T05:15:00Z,26.6493,-81.8810,88.2,1111122 
SCCF RECON,ioos:station:SCCF:53:1,2014-02-03T05:30:00Z,26.6493,-81.8810,89.1,1111122 
SCCF RECON,ioos:station:SCCF:53:1,2014-02-03T05:45:00Z,26.6493,-81.8810,90.3,1111122 
SCCF RECON,ioos:station:SCCF:53:1,2014-02-03T06:00:00Z,26.6493,-81.8810,91.3,1111122 
SCCF RECON,ioos:station:SCCF:53:1,2014-02-03T06:15:00Z,26.6493,-81.8810,92.4,1111122 
SCCF RECON,ioos:station:SCCF:53:1,2014-02-03T06:30:00Z,26.6493,-81.8810,92.5,1111122 
SCCF RECON,ioos:station:SCCF:53:1,2014-02-03T06:45:00Z,26.6493,-81.8810,93.4,1111122 
SCCF RECON,ioos:station:SCCF:53:1,2014-02-03T07:00:00Z,26.6493,-81.8810,93.5,1111122 
SCCF RECON,ioos:station:SCCF:53:1,2014-02-03T07:15:00Z,26.6493,-81.8810,94.3,1111122 
SCCF RECON,ioos:station:SCCF:53:1,2014-02-03T07:30:00Z,26.6493,-81.8810,93.8,1111122 
SCCF RECON,ioos:station:SCCF:53:1,2014-02-03T07:45:00Z,26.6493,-81.8810,94.2,1111122 
SCCF RECON,ioos:station:SCCF:53:1,2014-02-03T08:00:00Z,26.6493,-81.8810,94.9,1111122 
SCCF RECON,ioos:station:SCCF:53:1,2014-02-03T08:15:00Z,26.6493,-81.8810,95.2,1111122 
SCCF RECON,ioos:station:SCCF:53:1,2014-02-03T08:30:00Z,26.6493,-81.8810,95.1,1111122 
SCCF RECON,ioos:station:SCCF:53:1,2014-02-03T08:45:00Z,26.6493,-81.8810,95.0,1111122 
SCCF RECON,ioos:station:SCCF:53:1,2014-02-03T09:00:00Z,26.6493,-81.8810,95.5,1111122 
SCCF RECON,ioos:station:SCCF:53:1,2014-02-03T09:15:00Z,26.6493,-81.8810,95.7,1111122 
SCCF RECON,ioos:station:SCCF:53:1,2014-02-03T09:30:00Z,26.6493,-81.8810,95.9,1111122 
SCCF RECON,ioos:station:SCCF:53:1,2014-02-03T09:45:00Z,26.6493,-81.8810,96.2,1111122 
SCCF RECON,ioos:station:SCCF:53:1,2014-02-03T10:00:00Z,26.6493,-81.8810,96.8,1111122 
SCCF RECON,ioos:station:SCCF:53:1,2014-02-03T10:15:00Z,26.6493,-81.8810,96.9,1111122 
SCCF RECON,ioos:station:SCCF:53:1,2014-02-03T10:30:00Z,26.6493,-81.8810,97.4,1111122 
SCCF RECON,ioos:station:SCCF:53:1,2014-02-03T10:45:00Z,26.6493,-81.8810,97.7,1111122 
SCCF RECON,ioos:station:SCCF:53:1,2014-02-03T11:00:00Z,26.6493,-81.8810,98.0,1111122 
SCCF RECON,ioos:station:SCCF:53:1,2014-02-03T11:15:00Z,26.6493,-81.8810,98.4,1111122 
SCCF RECON,ioos:station:SCCF:53:1,2014-02-03T11:30:00Z,26.6493,-81.8810,98.6,1111122 
SCCF RECON,ioos:station:SCCF:53:1,2014-02-03T11:45:00Z,26.6493,-81.8810,98.7,1111122 
SCCF RECON,ioos:station:SCCF:53:1,2014-02-03T12:00:00Z,26.6493,-81.8810,98.7,1111122 
SCCF RECON,ioos:station:SCCF:53:1,2014-02-03T12:15:00Z,26.6493,-81.8810,98.8,1111122 
SCCF RECON,ioos:station:SCCF:53:1,2014-02-03T12:30:00Z,26.6493,-81.8810,98.9,1111122 
SCCF RECON,ioos:station:SCCF:53:1,2014-02-03T12:45:00Z,26.6493,-81.8810,99.0,1111122 
SCCF RECON,ioos:station:SCCF:53:1,2014-02-03T13:00:00Z,26.6493,-81.8810,99.1,1111122 
SCCF RECON,ioos:station:SCCF:53:1,2014-02-03T13:15:00Z,26.6493,-81.8810,99.2,1111122 
SCCF RECON,ioos:station:SCCF:53:1,2014-02-03T13:30:00Z,26.6493,-81.8810,99.3,1111122 
SCCF RECON,ioos:station:SCCF:53:1,2014-02-03T13:45:00Z,26.6493,-81.8810,99.3,1111122 
SCCF RECON,ioos:station:SCCF:53:1,2014-02-03T14:00:00Z,26.6493,-81.8810,99.4,1111122 
SCCF RECON,ioos:station:SCCF:53:1,2014-02-03T14:15:00Z,26.6493,-81.8810,99.2,1111122 
SCCF RECON,ioos:station:SCCF:53:1,2014-02-03T14:30:00Z,26.6493,-81.8810,99.2,1111122 
SCCF RECON,ioos:station:SCCF:53:1,2014-02-03T14:45:00Z,26.6493,-81.8810,98.9,1111122 
SCCF RECON,ioos:station:SCCF:53:1,2014-02-03T15:00:00Z,26.6493,-81.8810,94.4,1111122 
SCCF RECON,ioos:station:SCCF:53:1,2014-02-03T15:15:00Z,26.6493,-81.8810,86.2,1111122 
SCCF RECON,ioos:station:SCCF:53:1,2014-02-03T15:30:00Z,26.6493,-81.8810,84.1,1111122 
SCCF RECON,ioos:station:SCCF:53:1,2014-02-03T15:45:00Z,26.6493,-81.8810,80.2,1111122 
SCCF RECON,ioos:station:SCCF:53:1,2014-02-03T16:00:00Z,26.6493,-81.8810,74.8,1111122 
SCCF RECON,ioos:station:SCCF:53:1,2014-02-03T16:15:00Z,26.6493,-81.8810,74.6,1111122 
SCCF RECON,ioos:station:SCCF:53:1,2014-02-03T16:30:00Z,26.6493,-81.8810,74.0,1111122 
SCCF RECON,ioos:station:SCCF:53:1,2014-02-03T16:45:00Z,26.6493,-81.8810,77.2,1111122 
SCCF RECON,ioos:station:SCCF:53:1,2014-02-03T17:00:00Z,26.6493,-81.8810,77.0,1111122 
SCCF RECON,ioos:station:SCCF:53:1,2014-02-03T17:15:00Z,26.6493,-81.8810,77.3,1111122 
SCCF RECON,ioos:station:SCCF:53:1,2014-02-03T17:30:00Z,26.6493,-81.8810,78.0,1111122 
SCCF RECON,ioos:station:SCCF:53:1,2014-02-03T17:45:00Z,26.6493,-81.8810,75.7,1111122 
SCCF RECON,ioos:station:SCCF:53:1,2014-02-03T18:00:00Z,26.6493,-81.8810,76.0,1111122 
SCCF RECON,ioos:station:SCCF:53:1,2014-02-03T18:15:00Z,26.6493,-81.8810,75.2,1111122 
SCCF RECON,ioos:station:SCCF:53:1,2014-02-03T18:30:00Z,26.6493,-81.8810,75.6,1111122 
SCCF RECON,ioos:station:SCCF:53:1,2014-02-03T18:45:00Z,26.6493,-81.8810,76.2,1111122 
SCCF RECON,ioos:station:SCCF:53:1,2014-02-03T19:00:00Z,26.6493,-81.8810,75.7,1111122 
SCCF RECON,ioos:station:SCCF:53:1,2014-02-03T19:15:00Z,26.6493,-81.8810,76.2,1111122 
SCCF RECON,ioos:station:SCCF:53:1,2014-02-03T19:30:00Z,26.6493,-81.8810,77.4,1111122 
SCCF RECON,ioos:station:SCCF:53:1,2014-02-03T19:45:00Z,26.6493,-81.8810,77.7,1111122 
SCCF RECON,ioos:station:SCCF:53:1,2014-02-03T20:00:00Z,26.6493,-81.8810,78.1,1111122 
SCCF RECON,ioos:station:SCCF:53:1,2014-02-03T20:15:00Z,26.6493,-81.8810,78.8,1111122 
SCCF RECON,ioos:station:SCCF:53:1,2014-02-03T20:30:00Z,26.6493,-81.8810,79.2,1111122 
SCCF RECON,ioos:station:SCCF:53:1,2014-02-03T20:45:00Z,26.6493,-81.8810,79.5,1111122 
SCCF RECON,ioos:station:SCCF:53:1,2014-02-03T21:00:00Z,26.6493,-81.8810,78.6,1111122 
SCCF RECON,ioos:station:SCCF:53:1,2014-02-03T21:15:00Z,26.6493,-81.8810,78.9,1111122 